Flag for Russia Weather past 2 weeks in Surgut, Russia

Now
64 °F

Scattered clouds.


Feels Like: 64 °F
Forecast: 50 / 59 °F
Wind: 6 mph from Northeast

Location: Surgut Airport

Current Time: Jul 28, 2014 at 5:38:14 PM

Latest Report: Jul 28, 2014 at 5:00 PM


Visibility: 4 mi

Pressure: 29.53 "Hg

Humidity: 52%

Dew point: 46 °F

Location of SurgutLocation

Historic Weather in Surgut — Graph

°F

Surgut temperature yesterday

Maximum temperature yesterday: 59 °F (at 6:30 PM)
Minimum temperature yesterday: 50 °F (at 2:30 AM)
Average temperature yesterday: 53 °F

Past Weeks' High & Low Weather Summary

 TemperatureHumidityPressure
High75 °F (Jul 21, 5:30 PM)100% (Jul 17, 5:30 AM)29.95 "Hg (Jul 17, 5:30 AM)
Low39 °F (Jul 16, 4:30 AM)42% (Jul 15, 5:30 PM)29.24 "Hg (Jul 24, 5:30 AM)
Average57 °F75%29.62 "Hg
* Reported Jul 13 4:00 PM — Jul 28 4:30 PM, Surgut, Weather by CustomWeather, © 2014

Note: Actual official high and low records may vary slightly from our data, if they occured in-between our weather recording intervals... More about our weather records

Advertising

Surgut weather history for previous 24 hours

 ConditionsComfort  
Time TempWeatherWind HumidityBarometerVisibility
4:30 PM
Jul 28
63 °FBroken clouds.6 mph56%29.53 "Hg4 mi
4:00 PM63 °FBroken clouds.6 mph59%29.53 "Hg4 mi
3:30 PM63 °FBroken clouds.3 mph56%29.53 "Hg4 mi
3:00 PM61 °FBroken clouds.6 mph68%29.53 "Hg4 mi
2:30 PM61 °FScattered clouds.1 mph72%29.53 "Hg4 mi
2:00 PM59 °FSprinkles. Scattered clouds.6 mph77%29.53 "Hg4 mi
1:30 PM61 °FScattered clouds.6 mph68%29.53 "Hg4 mi
1:00 PM61 °FScattered clouds.3 mph68%29.53 "Hg4 mi
12:30 PM61 °FScattered clouds.3 mph68%29.53 "Hg4 mi
12:00 PM61 °FBroken clouds.6 mph68%29.53 "Hg4 mi
11:30 AM61 °FBroken clouds.3 mph72%29.53 "Hg4 mi
11:00 AM59 °FBroken clouds.6 mph82%29.53 "Hg4 mi
10:30 AM57 °FPartly sunny.6 mph82%29.53 "Hg4 mi
10:00 AM57 °FBroken clouds.6 mph82%29.53 "Hg4 mi
9:30 AM57 °FBroken clouds.6 mph88%29.53 "Hg4 mi
9:00 AM55 °FBroken clouds.6 mph94%29.53 "Hg4 mi
8:30 AM55 °FBroken clouds.6 mph94%29.53 "Hg4 mi
8:00 AM55 °FBroken clouds.3 mph94%29.53 "Hg4 mi
7:30 AM54 °FBroken clouds.3 mph100%29.53 "Hg4 mi
7:00 AM54 °FBroken clouds.3 mph100%29.50 "Hg4 mi
6:30 AM54 °FBroken clouds.3 mph100%29.50 "Hg4 mi
6:00 AM54 °FSprinkles. Broken clouds.No wind94%29.50 "Hg4 mi
5:30 AM54 °FBroken clouds.No wind94%29.50 "Hg4 mi
5:00 AM52 °FPartly cloudy.No wind100%29.53 "Hg4 mi
4:30 AM52 °FPartly cloudy.No wind100%29.53 "Hg4 mi
4:00 AM52 °FPartly cloudy.3 mph100%29.53 "Hg4 mi
3:30 AM54 °FSprinkles. Partly cloudy.1 mph94%29.53 "Hg4 mi
3:00 AM54 °FPartly cloudy.1 mph94%29.53 "Hg4 mi
2:30 AM52 °FPartly cloudy.No wind100%29.53 "Hg4 mi
2:00 AM54 °FPassing clouds.3 mph94%29.53 "Hg4 mi
1:30 AM54 °FPartly cloudy.No wind94%29.53 "Hg4 mi
1:00 AM54 °FPartly cloudy.No wind94%29.53 "Hg4 mi
12:30 AM54 °FPassing clouds.1 mph94%29.53 "Hg4 mi
12:00 AM54 °FSprinkles. Passing clouds.1 mph100%29.56 "Hg4 mi
11:30 PM
Jul 27
54 °FPassing clouds.1 mph100%29.56 "Hg4 mi
11:00 PM54 °FSprinkles. Passing clouds.3 mph100%29.56 "Hg4 mi
10:30 PM54 °FSprinkles. Partly sunny.6 mph100%29.56 "Hg4 mi
10:00 PM55 °FSprinkles. Scattered clouds.6 mph94%29.56 "Hg4 mi
9:30 PM55 °FSprinkles. Broken clouds.10 mph88%29.56 "Hg4 mi
9:00 PM55 °FScattered clouds.6 mph88%29.56 "Hg4 mi
8:30 PM55 °FBroken clouds.6 mph88%29.56 "Hg4 mi
8:00 PM57 °FBroken clouds.6 mph82%29.56 "Hg4 mi
7:30 PM57 °FBroken clouds.8 mph82%29.56 "Hg4 mi
7:00 PM57 °FBroken clouds.8 mph82%29.56 "Hg4 mi
6:30 PM59 °FBroken clouds.8 mph77%29.56 "Hg4 mi
6:00 PM57 °FBroken clouds.10 mph82%29.56 "Hg4 mi
5:30 PM57 °FSprinkles. Broken clouds.10 mph82%29.56 "Hg4 mi
5:00 PM57 °FBroken clouds.10 mph77%29.56 "Hg4 mi
Weather by CustomWeather, © 2014

See weather overviewHow to use our weather pages